Hourly Data Report for May 19, 2018

TORONTO CITY
ONTARIO
Current Station Operator: ECCC - MSC

43°40'00.000" N
79°24'00.000" W
112.50 m
6158355
71508
XTO

Download Data

Hourly Data (May 2018)
Hourly Data Report for May 19, 2018
TIME
LST
Temp Definition
°C
Dew Point Definition
°C
Rel Hum Definition
%
Precip. Amount Definition
mm

Wind Dir Definition
10's deg

Wind Spd Definition
km/h
Visibility Definition
km
Stn Press Definition
kPa
Hmdx Definition


Wind Chill Definition


Weather Definition


00:00 13.2 -1.3 36 0.0 LegendMM LegendMM   100.85     LegendNANA
01:00 13.6 -1.7 35 0.0 LegendMM LegendMM   100.77     LegendNANA
02:00 13.2 -0.5 39 0.0 LegendMM LegendMM   100.72     LegendNANA
03:00 12.5 1.5 47 0.0 LegendMM LegendMM   100.64     LegendNANA
04:00 11.9 2.9 54 0.0 LegendMM LegendMM   100.57     LegendNANA
05:00 9.5 6.5 81 0.5 LegendMM LegendMM   100.57     LegendNANA
06:00 9.9 8.4 91 1.4 LegendMM LegendMM   100.50     LegendNANA
07:00 10.7 9.4 91 1.3 LegendMM LegendMM   100.45     LegendNANA
08:00 11.4 10.1 92 4.1 LegendMM LegendMM   100.38     LegendNANA
09:00 10.5 9.2 91 0.6 LegendMM LegendMM   100.33     LegendNANA
10:00 10.3 9.0 92 0.0 LegendMM LegendMM   100.27     LegendNANA
11:00 10.1 8.6 91 0.0 LegendMM LegendMM   100.20     LegendNANA
12:00 10.5 8.9 90 0.0 LegendMM LegendMM   100.12     LegendNANA
13:00 10.8 9.3 91 0.9 LegendMM LegendMM   100.06     LegendNANA
14:00 11.4 10.0 91 0.0 LegendMM LegendMM   99.98     LegendNANA
15:00 12.6 10.4 86 0.0 LegendMM LegendMM   99.86     LegendNANA
16:00 14.6 11.5 82 0.0 LegendMM LegendMM   99.78     LegendNANA
17:00 15.3 11.4 77 0.0 LegendMM LegendMM   99.73     LegendNANA
18:00 14.5 11.0 80 0.0 LegendMM LegendMM   99.69     LegendNANA
19:00 14.5 11.7 83 0.0 LegendMM LegendMM   99.66     LegendNANA
20:00 14.0 11.4 85 2.3 LegendMM LegendMM   99.65     LegendNANA
21:00 13.7 11.8 88 1.3 LegendMM LegendMM   99.67     LegendNANA
22:00 12.9 11.2 90 0.0 LegendMM LegendMM   99.67     LegendNANA
23:00 13.5 12.0 91 0.0 LegendMM LegendMM   99.64     LegendNANA

Notes on Data Quality.

Legend

  • E = Estimated
  • M = Missing
  • NA = Not Available*
  • [empty] = Indicates an unobserved value
Date modified: